Location: Utrecht
(52.0907°N, 5.1214°E)
Time: 18:11:11
(UTC+02:00)

DIWATA 2B (PO-101) - Pass Details

Date: 02 July 2022
Orbit: 583 x 599 km, 98.0° (Epoch: 07 August)

Event Time Altitude Azimuth Distance (km) Brightness Sun altitude
Exits shadow 02:11:11 - 124° (SE) 2,579 ? -14.6°
Reaches altitude 10° 02:12:59 10° 113° (ESE) 1,942 ? -14.6°
Maximum altitude 02:16:18 23° 61° (ENE) 1,290 ? -14.5°
Drops below altitude 10° 02:19:39 10° 9° (N) 1,953 ? -14.4°
Sets 02:22:10 0° 355° (N) 2,860 ? -14.4°
